Date String (YYYY-MM-DD hh:mm:ss) UTC,Instrument flags,absolute air pressure of the measurement (hPa),sample flow rate (lpm),inlet stack bypass flow (lpm),air temperature of the measurement (°C),ambient temperature measured by the external sensor (°C),aerosol sample conditioner tube jacket temperature (°C),OPC LED temperature (°C),internal box temperature (°C),relative humidity of the measurement (%),span deviation,mass concentration of particles derived from Lorenz-Mie calculation of OPC scattering (μg/m³),mass concentration of particles derived from Lorenz-Mie calculation of OPC scattering (μg/m³),mass concentration of particles derived from Lorenz-Mie calculation of OPC scattering (μg/m³)
DateTimeUTC,F1_M11,P_M11,Q1_M11,Q2_M11,T1_M11,T2_M11,T3_M11,T4_M11,T5_M11,U1_M11,ZSPAN_M11,X2_M11,X0_M11,X1_M11
2023-07-27 22:00:00,SystemResetWarning,0832.3,5.01,000.00,028.4,024.9,000.0,036.5,029.9,18.0,0000.0,0001.99,0008.74,0001.43
2023-07-27 22:01:00,SystemResetWarning,0832.3,5.00,000.00,028.4,025.3,000.0,036.5,029.8,18.9,0000.0,0001.99,0008.28,0001.44
2023-07-27 22:02:00,SystemResetWarning,0832.3,5.00,000.00,028.3,025.7,000.0,036.6,029.8,17.8,0000.0,0002.00,0009.01,0001.44
2023-07-27 22:03:00,SystemResetWarning,0832.3,5.00,000.00,028.4,026.2,000.0,036.6,030.0,17.7,0000.0,0002.01,0009.06,0001.45
2023-07-27 22:04:00,SystemResetWarning,0832.3,4.99,000.00,028.4,026.6,000.0,036.6,030.1,17.3,0000.0,0002.05,0008.40,0001.46
2023-07-27 22:05:00,SystemResetWarning,0832.3,4.99,000.00,028.5,027.0,000.0,036.7,030.2,18.0,0000.0,0002.08,0007.72,0001.48
2023-07-27 22:06:00,SystemResetWarning,0832.3,4.99,000.00,028.5,026.5,000.0,036.6,030.1,19.4,0000.0,0002.09,0007.73,0001.48
2023-07-27 22:07:00,SystemResetWarning,0832.3,5.00,000.00,028.4,024.9,000.0,036.6,029.9,19.1,0000.0,0002.08,0007.77,0001.48
2023-07-27 22:08:00,SystemResetWarning,0832.2,5.02,000.00,028.4,024.8,000.0,036.5,029.9,18.1,0000.0,0002.12,0008.32,0001.49
2023-07-27 22:09:00,SystemResetWarning,0832.2,4.99,000.00,028.4,025.3,000.0,036.5,029.8,18.3,0000.0,0002.11,0008.20,0001.50
2023-07-27 22:10:00,SystemResetWarning,0832.2,4.99,000.00,028.3,025.7,000.0,036.6,029.9,18.6,0000.0,0002.16,0008.46,0001.49
2023-07-27 22:11:00,SystemResetWarning,0832.2,5.00,000.00,028.4,026.2,000.0,036.6,030.0,19.1,0000.0,0002.15,0008.31,0001.50
2023-07-27 22:12:00,SystemResetWarning,0832.3,5.01,000.00,028.4,026.6,000.0,036.6,030.1,20.1,0000.0,0002.15,0008.33,0001.50
2023-07-27 22:13:00,SystemResetWarning,0832.3,5.00,000.00,028.5,027.0,000.0,036.7,030.2,18.7,0000.0,0002.17,0007.58,0001.51
2023-07-27 22:14:00,SystemResetWarning,0832.3,4.98,000.00,028.5,026.5,000.0,036.7,030.2,17.6,0000.0,0002.18,0007.64,0001.52
2023-07-27 22:15:00,SystemResetWarning,0832.3,5.00,000.00,028.4,024.9,000.0,036.6,029.9,19.8,0000.0,0002.16,0007.89,0001.51
2023-07-27 22:16:00,SystemResetWarning,0832.2,5.01,000.00,028.4,024.8,000.0,036.5,029.9,19.1,0000.0,0002.15,0007.98,0001.51
2023-07-27 22:17:00,SystemResetWarning,0832.3,5.00,000.00,028.4,025.3,000.0,036.5,029.8,19.9,0000.0,0002.24,0008.32,0001.52
2023-07-27 22:18:00,SystemResetWarning,0832.3,5.00,000.00,028.3,025.7,000.0,036.6,029.9,19.3,0000.0,0002.27,0008.26,0001.51
2023-07-27 22:19:00,SystemResetWarning,0832.3,5.01,000.00,028.4,026.2,000.0,036.6,030.0,20.3,0000.0,0002.26,0007.63,0001.52
2023-07-27 22:20:00,SystemResetWarning,0832.3,5.00,000.00,028.4,026.6,000.0,036.6,030.1,19.4,0000.0,0002.30,0008.17,0001.53
2023-07-27 22:21:00,SystemResetWarning,0832.3,4.99,000.00,028.5,027.0,000.0,036.7,030.3,18.4,0000.0,0002.30,0006.98,0001.55
2023-07-27 22:22:00,SystemResetWarning,0832.4,4.99,000.00,028.5,027.4,000.0,036.7,030.4,17.8,0000.0,0002.34,0006.73,0001.56
2023-07-27 22:23:00,SystemResetWarning,0832.4,4.99,000.00,028.6,026.9,000.0,036.7,030.3,16.7,0000.0,0002.39,0006.75,0001.57
2023-07-27 22:24:00,SystemResetWarning,0832.4,5.00,000.00,028.5,025.3,000.0,036.6,030.0,17.6,0000.0,0002.40,0006.77,0001.57
2023-07-27 22:25:00,SystemResetWarning,0832.3,5.00,000.00,028.5,025.1,000.0,036.6,029.9,17.2,0000.0,0002.44,0007.52,0001.58
2023-07-27 22:26:00,SystemResetWarning,0832.3,5.02,000.00,028.4,025.4,000.0,036.6,029.9,17.5,0000.0,0002.46,0007.98,0001.59
2023-07-27 22:27:00,SystemResetWarning,0832.3,5.00,000.00,028.4,025.8,000.0,036.6,029.9,17.6,0000.0,0002.48,0008.76,0001.60
2023-07-27 22:28:00,SystemResetWarning,0832.3,5.00,000.00,028.4,026.3,000.0,036.7,030.1,17.8,0000.0,0002.42,0009.14,0001.61
2023-07-27 22:29:00,SystemResetWarning,0832.3,4.98,000.00,028.5,026.7,000.0,036.7,030.2,18.9,0000.0,0002.45,0009.37,0001.63
2023-07-27 22:30:00,SystemResetWarning,0832.4,4.99,000.00,028.6,026.9,000.0,036.7,030.3,18.4,0000.0,0002.48,0009.42,0001.65
2023-07-27 22:31:00,SystemResetWarning,0832.4,5.01,000.00,028.6,025.6,000.0,036.7,030.1,17.6,0000.0,0002.47,0008.89,0001.65
2023-07-27 22:32:00,SystemResetWarning,0832.3,5.00,000.00,028.5,024.7,000.0,036.6,030.0,17.9,0000.0,0002.50,0008.99,0001.67
2023-07-27 22:33:00,SystemResetWarning,0832.3,5.01,000.00,028.4,025.0,000.0,036.6,029.9,19.3,0000.0,0002.51,0009.96,0001.68
2023-07-27 22:34:00,SystemResetWarning,0832.3,5.01,000.00,028.4,025.4,000.0,036.6,029.9,19.2,0000.0,0002.49,0011.22,0001.69
2023-07-27 22:35:00,SystemResetWarning,0832.5,5.00,000.00,028.4,025.9,000.0,036.7,029.9,18.9,0000.0,0002.54,0012.32,0001.70
2023-07-27 22:36:00,SystemResetWarning,0832.4,5.01,000.00,028.4,026.4,000.0,036.7,030.1,17.5,0000.0,0002.54,0011.84,0001.71
2023-07-27 22:37:00,SystemResetWarning,0832.5,5.00,000.00,028.5,026.8,000.0,036.7,030.2,17.2,0000.0,0002.54,0011.13,0001.71
2023-07-27 22:38:00,SystemResetWarning,0832.5,4.99,000.00,028.6,027.2,000.0,036.8,030.3,19.4,0000.0,0002.53,0010.86,0001.70
2023-07-27 22:39:00,SystemResetWarning,0832.5,4.99,000.00,028.6,026.8,000.0,036.7,030.3,19.2,0000.0,0002.62,0010.77,0001.71
2023-07-27 22:40:00,SystemResetWarning,0832.4,5.00,000.00,028.5,025.3,000.0,036.7,030.0,19.4,0000.0,0002.71,0011.90,0001.71
2023-07-27 22:41:00,SystemResetWarning,0832.5,5.02,000.00,028.5,025.0,000.0,036.6,029.9,19.8,0000.0,0002.69,0013.04,0001.71
2023-07-27 22:42:00,SystemResetWarning,0832.4,4.99,000.00,028.4,025.4,000.0,036.6,029.9,19.1,0000.0,0002.71,0013.91,0001.70
2023-07-27 22:43:00,SystemResetWarning,0832.4,5.00,000.00,028.4,025.8,000.0,036.7,030.0,19.5,0000.0,0002.65,0013.93,0001.68
2023-07-27 22:44:00,SystemResetWarning,0832.5,5.01,000.00,028.5,026.3,000.0,036.7,030.1,18.3,0000.0,0002.63,0012.92,0001.67
2023-07-27 22:45:00,SystemResetWarning,0832.5,5.01,000.00,028.5,026.7,000.0,036.7,030.2,19.2,0000.0,0002.65,0011.59,0001.67
2023-07-27 22:46:00,SystemResetWarning,0832.5,5.00,000.00,028.6,027.1,000.0,036.8,030.3,19.7,0000.0,0002.64,0010.69,0001.65
2023-07-27 22:47:00,SystemResetWarning,0832.5,4.99,000.00,028.6,027.3,000.0,036.8,030.4,18.6,0000.0,0002.64,0011.36,0001.64
2023-07-27 22:48:00,SystemResetWarning,0832.4,4.98,000.00,028.6,026.1,000.0,036.7,030.2,17.8,0000.0,0002.68,0011.71,0001.64
2023-07-27 22:49:00,SystemResetWarning,0832.4,5.01,000.00,028.6,024.9,000.0,036.7,030.0,18.0,0000.0,0002.64,0011.32,0001.64
2023-07-27 22:50:00,SystemResetWarning,0832.4,5.01,000.00,028.5,025.2,000.0,036.6,030.0,18.2,0000.0,0002.59,0010.75,0001.64
2023-07-27 22:51:00,SystemResetWarning,0832.4,4.99,000.00,028.5,025.6,000.0,036.7,029.9,18.5,0000.0,0002.52,0009.71,0001.62
2023-07-27 22:52:00,SystemResetWarning,0832.4,5.00,000.00,028.5,026.1,000.0,036.7,030.0,18.7,0000.0,0002.52,0009.24,0001.60
2023-07-27 22:53:00,SystemResetWarning,0832.4,5.00,000.00,028.5,026.5,000.0,036.8,030.2,19.1,0000.0,0002.48,0008.12,0001.60
2023-07-27 22:54:00,SystemResetWarning,0832.4,5.00,000.00,028.6,026.9,000.0,036.8,030.3,18.7,0000.0,0002.53,0008.35,0001.62
2023-07-27 22:55:00,SystemResetWarning,0832.4,4.99,000.00,028.6,027.1,000.0,036.8,030.4,17.8,0000.0,0002.59,0009.43,0001.62
2023-07-27 22:56:00,SystemResetWarning,0832.3,4.99,000.00,028.6,025.9,000.0,036.7,030.2,18.5,0000.0,0002.58,0009.63,0001.60
2023-07-27 22:57:00,SystemResetWarning,0832.3,5.00,000.00,028.6,024.8,000.0,036.7,030.0,18.2,0000.0,0002.58,0010.19,0001.59
2023-07-27 22:58:00,SystemResetWarning,0832.3,5.01,000.00,028.5,025.1,000.0,036.6,029.9,19.5,0000.0,0002.56,0010.37,0001.59
2023-07-27 22:59:00,SystemResetWarning,0832.3,4.99,000.00,028.5,025.5,000.0,036.7,029.9,19.4,0000.0,0002.57,0010.31,0001.58
